Regional Weather Roundup
Issued by NWS

Home | Current Version | Previous Version | Text Only | Print | Product List | Glossary Off
Versions: 1 2 3 4 5 6 7 8 9 10 11 12 13 14 15 16 17 18 19 20 21 22 23 24 25 26 27 28 29 30 31 32 33 34 35 36 37 38 39 40 41 42 43 44 45 46 47 48 49 50

180
ASUS44 KMEG 270610
RWRTN
TENNESSEE HOURLY STATE WEATHER ROUNDUP
NATIONAL WEATHER SERVICE MEMPHIS TN
100 AM CDT MON MAR 27 2017

TNZ002-004-019-021-049-052-054-088>092-270700-
WEST TENNESSEE

CITY           SKY/WX    TMP DP  RH WIND       PRES   REMARKS
MEMPHIS INTL   CLOUDY    62  54  74 E5        29.91F
NWS MEMPHIS      N/A     58 N/A N/A MISG        N/A
JACKSON        CLOUDY    52  50  93 CALM      29.95F
DYERSBURG      CLOUDY    58  53  84 SE5       29.95S
SOMERVILLE     CLEAR     57  52  82 CALM      29.92F
BOLIVAR        PTCLDY    52  50  93 CALM      29.94F
PARIS          CLEAR     54  48  82 E3        29.96F
HUNTINGDON     CLEAR     54  50  87 CALM      29.95F
SAVANNAH       CLEAR     55  54  94 CALM      29.95F
$$

TNZ008-025-027-028-033-062-065-066-270700-
NORTH MIDDLE TENNESSEE

CITY           SKY/WX    TMP DP  RH WIND       PRES   REMARKS
NASHVILLE      CLOUDY    60  54  80 S6        29.98F
PORTLAND       PTCLDY    61  54  77 CALM      29.98F
CLARKSVILLE    PTCLDY    53  49  86 CALM      29.98R
SMYRNA         CLOUDY    58  54  86 SE5       29.99F
COOKEVILLE     CLEAR     52  50  93 S3        30.00F
GALLATIN       MOCLDY    57  54  88 N3        30.01S
CROSSVILLE     CLEAR     55  50  83 CALM      30.05F
$$

TNZ061-075-076-078-094-096-097-270700-
SOUTH MIDDLE TENNESSEE

CITY           SKY/WX    TMP DP  RH WIND       PRES   REMARKS
FAYETTEVILLE   PTCLDY    57  55  94 SE5       30.00S
TULLAHOMA      CLEAR     52  52 100 CALM      30.01F
MCMINNVILLE    CLEAR     54  54 100 CALM      30.01F
COLUMBIA       CLEAR    N/A N/A N/A CALM      29.97R
SHELBYVILLE    CLEAR     61  55  82 SE5       30.00F
$$

TNZ017-018-042-046-047-270700-
NORTHEAST TENNESSEE

CITY           SKY/WX    TMP DP  RH WIND       PRES   REMARKS
TRI CITIES     CLOUDY    61  54  77 NW5       30.06S
ELIZABETHTON   CLOUDY    55  52  88 CALM      30.06F
$$

TNZ012-013-036-069-073-074-270700-
CENTRAL EAST TENNESSEE

CITY           SKY/WX    TMP DP  RH WIND       PRES   REMARKS
KNOXVILLE      PTCLDY    60  52  74 S5        30.03F
OAK RIDGE      CLEAR     56  51  84 CALM      30.04F
DOWNTOWN KNOXV CLOUDY    55  55 100 CALM      30.04S
GATLINBURG     PTCLDY    55  52  88 CALM      30.04S
MORRISTOWN     CLOUDY    57  55  94 CALM      30.04F
JACKSBORO      CLEAR     61  50  67 CALM      30.05F
$$

TNZ083-085-099-270700-
SOUTHEAST TENNESSEE

CITY           SKY/WX    TMP DP  RH WIND       PRES   REMARKS
CHATTANOOGA    CLEAR     57  53  86 CALM      30.03F
$$

SKY/WX REPORTED AS FAIR MEANS FEW OR NO CLOUDS BELOW
12 THOUSAND FEET.





USA.gov is the U.S. government's official web portal to all federal, state and local government web resources and services.